Location: Edinburgh
(55.9500°N, 3.1600°W)
Time: 09:56:37
(UTC+00:00)

Envisat - Pass Details

Date: 22 February 2019
Orbit: 764 x 766 km, 98.2° (Epoch: 19 March)

Event Time Altitude Azimuth Distance (km) Brightness Sun altitude
Rises 06:17:52 0° 25° (NNE) 3,247 6.5 -9.7°
Reaches altitude 10° 06:21:13 10° 48° (NE) 2,314 6.2 -9.2°
Maximum altitude 06:24:09 15° 84° (E) 1,966 6.5 -8.8°
Drops below altitude 10° 06:27:05 10° 119° (ESE) 2,304 6.7 -8.4°
Sets 06:30:23 0° 142° (SE) 3,224 7.0 -7.9°
